Current Conditions for Foresthill, CA. Clear skies, Dry   
Visibility: 10 miles
Foresthill Advisory text: No Warning

  Summary / Temperature 

Current Temperature
61.0°F
16.1°C
(24/hr Ago)
71.6°F
(Apparent temp)
59.9°F
Comfortable
Wind Chill Graphs
61.0°F 

62.1°F/ 16.7°C
 --- Virtual Temp: 63.4°F ---

 Temp Rate:

 24/hr Difference:

 Avg Running Temp:

 Todays High:

 Todays Low:

 Y-days High:

 Y-days Low:

 Todays WChill:

 Y-days WChill:

 Evapotranspiration:

-2.1°F/hr 

-10.6°F

62.7°F

62.1°F 12:00am

61.0°F 12:49am

79.6°F 2:43pm

62.1°F 11:59pm

60.8°F 12:34am

61.9°F 11:57pm

0.000 in

115' Above Ground

 Temperature:

 6'AGL VRS 115'AGL:

 Avg Running Temp:

 Humidity:

 Todays High:

 Todays Low:

 Y-days High:

 Y-days Low:

61.0°F 

0°F

61.7°F

60% 

61.0°F 12:00am

61.0°F 12:00am

76.0°F 3:15pm

61.0°F 11:34pm

Temp & Humidity Graphs

  Wind 

Wind Speed

 Calm

Gusting to

 6.0 mph

Calm

181°  

Calm

 Avg speed:

 Wind Run:

 Peak Gust:

  1.0 mph 

1.0 miles

  7.0 mph 12:32am

  Almanac  

Moon age: 15 days,8 hours,44 minutes,100%

Full moon
100%
Illuminated
15 days in cycle

 Moonrise:

 Moonset:

 Sunrise:

 Sunset:

 Solar Noon:

8:17pm

7:32am

6:31am

7:38pm

1:04pm

2min 24s less daylight tomorrow 

  Solar Radiation 

(Current Solar)
  No Sun Light
(Todays High)
 None@12:00am

Rain

 Rain Today:

 Rain Rate (/hr):

 Rain last hour:

 Rain Yesterday:

 This Month:

 Season Total:

58 Days Since Last Rain Day

0.00 in

0.000 in

0.00 in

0.00 in

0.00 in

0.01 in

Updated Time

Updated: 8/30/15  12:50am

(Updated  sec ago)

Humidity & Barometer

 Humidity:

 Wetbulb:

 Dew Point:

 Barometer:

61% 

53.8°F 

47.4°F 

29.942 inHg 

 Baro Trend:  Steady 
Northern Calif
Preparedness
Fire 
Level 

    UV Index  

(Current UV)
0.0  None
(Todays High) @ 12:00am
0.0   None

Weather Underground 5 day Forecast

Sun Mon Tue Wed Thu
Partly Cloudy Partly Cloudy Partly Cloudy Partly Cloudy Partly Cloudy
Partly Cloudy Partly Cloudy Partly Cloudy Partly Cloudy Partly Cloudy
84 87 87 81 81
58 61 59 58 57

Foresthill Probe 2 Stats  
Foresthill Probe 2: is located on Thomas Street
at 3000 feet. The main Foresthill Weather site
is located on Melody ln at the 2860 foot elevation

Calm
58.2°F
14.6°C
Temp Rate:
-2.1°F
Calm
Gusting to
None
(Humidity)
68%
Calm
209°  
Updated: 30/08/15 - 00:48:44
 Todays High: 59.4°F 00:00
 Todays Low: 58.2°F 00:41
 Rain Today: 0.00 in
 Season Total: 0.02 in

Foresthill Wx: Monthly,Yearly, Highs and Lows 

Foresthill  
This Weather Data is coming from the main Foresthill
Weather site located on Melody ln at the 2860 foot
elevation
Not Foresthill Probe 2
Weather Data
Month
  High
Month
  Low
Year
High
Year
Low
Temp 97.1F
8/16/15
57.8F
8/5/15
98.1F
7/29/15
29.7F
1/1/15
Humidity 77%
8/5/15
8%
8/16/15
98%
4/25/15
8%
8/16/15
Heat Index 92.0F
8/16/15
61.4F
8/5/15
93.9F
7/29/15
32.1F
1/1/15
Wind Chill 97.1F
8/16/15
56.1F
8/5/15
98.1F
7/29/15
22.3F
4/7/15
Wind Gust 23 mph
8/28/15
0 mph
8/1/15
52 mph
2/6/15
0 mph
1/1/15
Barometer 30.04 in
8/5/15
29.77 in
8/20/15
30.51 in
1/4/15
29.66 in
6/14/15
ET 0.26 in
8/17/15
0.00 in
8/1/15
0.29 in
7/29/15
0.00 in
1/1/15
Dew Point 60.9F
8/29/15
23.4F
8/17/15
68.1F
6/11/15
10.0F
1/1/15
Infrared Satellite Regional Radar Satellite Imagery Sacramento,CA.  (click to enlarge)
NWS Weather Forecast - Outlook: Overnight and Sunday
Overnight

Overnight: Mostly clear, with a low around 59. Light and variable wind.
Mostly Clear

Lo 59 °F
NWS forecast: Mostly clear, with a low around 59. Light and variable wind.
Sunday

Sunday: Sunny, with a high near 80. Calm wind becoming west 5 to 7 mph in the afternoon.
Sunny

Hi 80 °F
NWS forecast: Sunny, with a high near 80. Calm wind becoming west 5 to 7 mph in the afternoon.
NWS Weather Forecast - Summary
Updated: Saturday, August 29, 2015 - 3:20pm (PDT)
YR.NO 10 Day Weather forecast
Last update: 08/29/2015 @ 12:43
Next update: 08/30/2015 @ 01:00
Provided by: 22
      Temperature Precipitation Pressure Wind  
Tomorrow
08/29/2015
23:00 05:00 61°F   30.00 inHg Light air from south 3 mph
    (Click to enlarge)
meteogram

    Forecast for next 9 days

      Temperature Precip Pressure Wind  
Today 05:00 11:00 54°F   29.99 inHg Light air from south-southeast 2 mph
  11:00 17:00 72°F   29.99 inHg Light breeze from southwest 4 mph
  17:00 23:00 75°F   29.93 inHg Light breeze from west-southwest 5 mph
  23:00 05:00 61°F   29.93 inHg Light air from east-northeast 2 mph
      Temperature Precip Pressure Wind  
Monday
08/31/2015
05:00 11:00 52°F   29.90 inHg Light air from east-northeast 3 mph
  11:00 17:00 77°F   29.90 inHg Light breeze from west-southwest 4 mph
  17:00 23:00 81°F   29.83 inHg Light breeze from west-southwest 5 mph
  23:00 05:00 64°F   29.87 inHg Light air from east-southeast 2 mph
      Temperature Precip Pressure Wind  
Tuesday
09/01/2015
05:00 11:00 52°F   29.83 inHg Light air from east-northeast 3 mph
  11:00 17:00 79°F   29.85 inHg Light breeze from southwest 5 mph
  17:00 23:00 79°F   29.81 inHg Light breeze from southwest 7 mph
  23:00 05:00 63°F   29.88 inHg Light air from south-southeast 3 mph
      Temperature Precip Pressure Wind  
Wednesday
09/02/2015
05:00 11:00 55°F   29.86 inHg Light breeze from east-southeast 4 mph
  11:00 17:00 73°F   29.91 inHg Gentle breeze from south-southwest 9 mph
  17:00 23:00 72°F   29.88 inHg Gentle breeze from south-southwest 8 mph
  23:00 05:00 57°F   29.94 inHg Light air from south-southeast 3 mph
      Temperature Precip Pressure Wind  
Thursday
09/03/2015
05:00 11:00 54°F   29.93 inHg Light breeze from southeast 4 mph
  11:00 17:00 68°F   29.94 inHg Light breeze from south-southwest 7 mph
  17:00 23:00 70°F   29.88 inHg Light breeze from southwest 6 mph
  23:00 05:00 54°F   29.90 inHg Light air from east-northeast 1 mph
      Temperature Precip Pressure Wind  
Friday
09/04/2015
05:00 11:00 48°F   29.88 inHg Light breeze from east-northeast 4 mph
  11:00 17:00 75°F   29.88 inHg Light breeze from west-southwest 5 mph
  17:00 23:00 79°F   29.82 inHg Light breeze from west-northwest 6 mph
  23:00 05:00 63°F   29.86 inHg Light breeze from east-northeast 4 mph
      Temperature Precip Pressure Wind  
Saturday
09/05/2015
05:00 11:00 54°F   29.87 inHg Light breeze from east-northeast 5 mph
  11:00 17:00 79°F   29.90 inHg Light breeze from west-southwest 4 mph
  17:00 23:00 82°F   29.86 inHg Light breeze from west-southwest 5 mph
  23:00 05:00 63°F   29.90 inHg Light air from east-northeast 2 mph
      Temperature Precip Pressure Wind  
Sunday
09/06/2015
05:00 11:00 55°F   29.91 inHg Light breeze from east-northeast 5 mph
  11:00 17:00 84°F   29.92 inHg Light breeze from west-southwest 4 mph
  17:00 23:00 84°F   29.88 inHg Light breeze from west-southwest 5 mph
  23:00 05:00 64°F   29.93 inHg Light air from east-northeast 2 mph
      Temperature Precip Pressure Wind  
Monday
09/07/2015
05:00 11:00 55°F   29.91 inHg Light breeze from east-northeast 5 mph
  11:00 17:00 86°F   29.91 inHg Light breeze from southwest 4 mph
  17:00 23:00 86°F   29.86 inHg Light breeze from southwest 6 mph
  23:00 05:00 66°F   29.88 inHg Light air from east-northeast 2 mph

Weather History For Sunday, August 30, 2015


On this Day - In Weather History ...
Data courtesy of weatherforyou.com
powered by Cumulus v1.9.3 (1059)
Ambient Weather VWS v14.00
Top Contact Website Map Copyright © 2007 - 2015 Foresthillweather.com Never base important decisions on this or any weather information obtained from the Internet